This is the latest recevied weather packets stored in our database for station/object I0UVN-10. If no packets are shown the sender has not sent any weather packets the latest 10 day(s).
| Time | Temp. | Humidity | Pressure | Rain* | Wind** | Luminosity | Snow |
|---|---|---|---|---|---|---|---|
| 1788168070 | 30° C | 56% | 1019.6 hPa | - | - | - | - |
| 1788166869 | 30° C | 56% | 1019.5 hPa | - | - | - | - |
| 1788165667 | 30° C | 56% | 1019.2 hPa | - | - | - | - |
| 1788164466 | 30° C | 56% | 1019 hPa | - | - | - | - |
| 1788163266 | 30° C | 57% | 1018.9 hPa | - | - | - | - |
| 1788162065 | 29.44° C | 57% | 1019 hPa | - | - | - | - |
| 1788160865 | 29.44° C | 58% | 1018.8 hPa | - | - | - | - |
| 1788159664 | 28.89° C | 59% | 1018.7 hPa | - | - | - | - |
| 1788158464 | 28.33° C | 61% | 1018.8 hPa | - | - | - | - |
| 1788157263 | 27.78° C | 63% | 1018.7 hPa | - | - | - | - |
| 1788156063 | 27.78° C | 63% | 1018.9 hPa | - | - | - | - |
| 1788154863 | 27.78° C | 60% | 1018.9 hPa | - | - | - | - |
| 1788153662 | 27.22° C | 60% | 1018.8 hPa | - | - | - | - |
| 1788152462 | 27.22° C | 60% | 1018.8 hPa | - | - | - | - |
| 1788151262 | 27.78° C | 60% | 1018.8 hPa | - | - | - | - |
| 1788150058 | 27.78° C | 60% | 1018.7 hPa | - | - | - | - |
| 1788148857 | 27.78° C | 60% | 1018.7 hPa | - | - | - | - |
| 1788147656 | 27.78° C | 60% | 1018.7 hPa | - | - | - | - |
| 1788146455 | 27.78° C | 60% | 1018.8 hPa | - | - | - | - |
| 1788145254 | 27.78° C | 60% | 1018.9 hPa | - | - | - | - |
| 1788144053 | 28.33° C | 60% | 1019 hPa | - | - | - | - |
| 1788142853 | 28.33° C | 60% | 1018.9 hPa | - | - | - | - |
| 1788141652 | 28.33° C | 59% | 1019 hPa | - | - | - | - |
| 1788140451 | 28.33° C | 57% | 1019.2 hPa | - | - | - | - |
| 1788139250 | 28.33° C | 58% | 1019.2 hPa | - | - | - | - |
* Rain since midnight (hover to see other rain measurements)
** Current wind speed in m/s (hover to see current wind gust speed)